| time (UTC) | temp F | wind direction | speed MPH | gust MPH | rain 1hr in | rain 24hr in | rain mn in | humidity % | barometer mb |
| 20260507021523 | 38 | 285 | 0.0 | 0.0 | 0.00 | 0.00 | 0.00 | 58 | 1015.6 |
| 20260507020113 | 39 | 285 | 0.0 | 1.0 | 0.00 | 0.00 | 0.00 | 56 | 1015.5 |
| 20260507014530 | 41 | 279 | 0.0 | 1.0 | 0.00 | 0.00 | 0.00 | 53 | 1015.4 |
| 20260507013014 | 42 | 286 | 0.0 | 3.0 | 0.00 | 0.00 | 0.00 | 51 | 1015.4 |
| 20260507011550 | 43 | 278 | 0.0 | 3.0 | 0.00 | 0.00 | 0.00 | 51 | 1015.4 |
| 20260507010036 | 44 | 284 | 1.0 | 6.0 | 0.00 | 0.00 | 0.00 | 49 | 1015.4 |
| 20260507004506 | 44 | 276 | 1.0 | 7.0 | 0.00 | 0.00 | 0.00 | 49 | 1015.5 |
| 20260507003047 | 44 | 288 | 2.0 | 7.0 | 0.00 | 0.00 | 0.00 | 49 | 1015.6 |
| 20260507001512 | 45 | 288 | 3.0 | 8.0 | 0.00 | 0.00 | 0.00 | 48 | 1015.6 |
| 20260507000050 | 45 | 271 | 4.0 | 7.0 | 0.00 | 0.00 | 0.00 | 47 | 1015.8 |
| 20260506234528 | 45 | 278 | 2.0 | 8.0 | 0.00 | 0.00 | 0.00 | 48 | 1015.8 |
| 20260506233001 | 45 | 277 | 3.0 | 14.0 | 0.00 | 0.00 | 0.00 | 48 | 1016.0 |
| 20260506231532 | 46 | 283 | 2.0 | 11.0 | 0.00 | 0.00 | 0.00 | 46 | 1016.1 |
| 20260506230009 | 46 | 257 | 2.0 | 8.0 | 0.00 | 0.00 | 0.00 | 46 | 1016.0 |
| 20260506224541 | 46 | 315 | 4.0 | 11.0 | 0.00 | 0.00 | 0.00 | 47 | 1016.1 |
| 20260506223027 | 46 | 283 | 4.0 | 12.0 | 0.00 | 0.00 | 0.00 | 46 | 1016.4 |
| 20260506221611 | 47 | 293 | 2.0 | 11.0 | 0.00 | 0.00 | 0.00 | 47 | 1016.4 |
| 20260506220028 | 46 | 308 | 4.0 | 11.0 | 0.00 | 0.00 | 0.00 | 48 | 1016.4 |
| 20260506214509 | 46 | 268 | 5.0 | 13.0 | 0.00 | 0.00 | 0.00 | 46 | 1016.6 |
| 20260506213057 | 45 | 309 | 2.0 | 11.0 | 0.00 | 0.00 | 0.00 | 49 | 1016.7 |
| 20260506211513 | 45 | 283 | 3.0 | 9.0 | 0.00 | 0.00 | 0.00 | 49 | 1016.9 |
| 20260506210048 | 45 | 250 | 5.0 | 14.0 | 0.00 | 0.00 | 0.00 | 48 | 1017.0 |
| 20260506204529 | 46 | 278 | 2.0 | 11.0 | 0.00 | 0.00 | 0.00 | 48 | 1017.2 |
| 20260506203100 | 45 | 275 | 4.0 | 12.0 | 0.00 | 0.00 | 0.00 | 49 | 1017.4 |
| 20260506201532 | 45 | 260 | 4.0 | 13.0 | 0.00 | 0.00 | 0.00 | 50 | 1017.6 |
| 20260506200007 | 45 | 295 | 3.0 | 13.0 | 0.00 | 0.00 | 0.00 | 51 | 1017.5 |
| 20260506194535 | 43 | 274 | 3.0 | 10.0 | 0.00 | 0.00 | 0.00 | 51 | 1017.7 |
| 20260506193010 | 43 | 302 | 4.0 | 10.0 | 0.00 | 0.00 | 0.00 | 51 | 1017.6 |
| 20260506191543 | 43 | 286 | 5.0 | 10.0 | 0.00 | 0.00 | 0.00 | 51 | 1017.7 |
| 20260506190023 | 43 | 281 | 5.0 | 11.0 | 0.00 | 0.00 | 0.00 | 50 | 1017.7 |
| 20260506184556 | 43 | 296 | 1.0 | 10.0 | 0.00 | 0.00 | 0.00 | 51 | 1017.7 |
| 20260506183036 | 43 | 266 | 2.0 | 10.0 | 0.00 | 0.00 | 0.00 | 51 | 1017.7 |
| 20260506181507 | 42 | 280 | 5.0 | 12.0 | 0.00 | 0.00 | 0.00 | 51 | 1017.8 |
| 20260506180036 | 42 | 290 | 5.0 | 13.0 | 0.00 | 0.00 | 0.00 | 52 | 1017.8 |
| 20260506174510 | 41 | 272 | 4.0 | 13.0 | 0.00 | 0.00 | 0.00 | 52 | 1018.0 |
| 20260506173056 | 41 | 264 | 5.0 | 12.0 | 0.00 | 0.00 | 0.00 | 53 | 1018.3 |
| 20260506171512 | 41 | 286 | 3.0 | 12.0 | 0.00 | 0.00 | 0.00 | 53 | 1018.4 |
| 20260506170056 | 40 | 283 | 4.0 | 14.0 | 0.00 | 0.00 | 0.00 | 53 | 1018.4 |
| 20260506164531 | 40 | 308 | 5.0 | 11.0 | 0.00 | 0.00 | 0.00 | 53 | 1018.4 |
| 20260506163052 | 40 | 322 | 3.0 | 12.0 | 0.00 | 0.00 | 0.00 | 56 | 1018.5 |
| 20260506161518 | 39 | 285 | 2.0 | 10.0 | 0.00 | 0.00 | 0.00 | 57 | 1018.6 |
| 20260506160053 | 39 | 303 | 5.0 | 8.0 | 0.00 | 0.00 | 0.00 | 56 | 1018.5 |
| 20260506154516 | 38 | 233 | 3.0 | 7.0 | 0.00 | 0.00 | 0.00 | 59 | 1018.5 |
| 20260506153106 | 38 | 269 | 3.0 | 7.0 | 0.00 | 0.00 | 0.00 | 60 | 1018.3 |
| 20260506151522 | 38 | 286 | 3.0 | 6.0 | 0.00 | 0.00 | 0.00 | 62 | 1018.3 |
| 20260506150059 | 37 | 284 | 2.0 | 8.0 | 0.00 | 0.00 | 0.00 | 62 | 1018.4 |
| 20260506144523 | 37 | 282 | 2.0 | 9.0 | 0.00 | 0.00 | 0.00 | 65 | 1018.4 |
| 20260506143052 | 37 | 269 | 0.0 | 6.0 | 0.00 | 0.00 | 0.00 | 66 | 1018.3 |
| 20260506141520 | 37 | 259 | 1.0 | 7.0 | 0.00 | 0.00 | 0.00 | 66 | 1018.2 |
| 20260506140054 | 37 | 278 | 1.0 | 7.0 | 0.00 | 0.00 | 0.00 | 66 | 1018.3 |
| 20260506134534 | 37 | 274 | 1.0 | 6.0 | 0.00 | 0.00 | 0.00 | 66 | 1018.2 |
| 20260506133006 | 36 | 279 | 2.0 | 6.0 | 0.00 | 0.00 | 0.00 | 67 | 1018.1 |
| 20260506131540 | 36 | 280 | 1.0 | 4.0 | 0.00 | 0.00 | 0.00 | 69 | 1017.9 |
| 20260506130016 | 36 | 281 | 0.0 | 4.0 | 0.00 | 0.00 | 0.00 | 70 | 1017.8 |
| 20260506124547 | 35 | 280 | 0.0 | 2.0 | 0.00 | 0.00 | 0.00 | 71 | 1017.7 |
| 20260506123021 | 35 | 267 | 0.0 | 1.0 | 0.00 | 0.00 | 0.00 | 71 | 1017.4 |
| 20260506121555 | 35 | 280 | 1.0 | 3.0 | 0.00 | 0.00 | 0.00 | 71 | 1017.3 |
| 20260506120027 | 35 | 276 | 1.0 | 3.0 | 0.00 | 0.00 | 0.00 | 72 | 1017.2 |
| 20260506114612 | 35 | 255 | 0.0 | 1.0 | 0.00 | 0.00 | 0.00 | 72 | 1016.9 |
| 20260506113042 | 35 | 255 | 0.0 | 1.0 | 0.00 | 0.00 | 0.00 | 71 | 1016.6 |
| 20260506111516 | 35 | 255 | 0.0 | 3.0 | 0.00 | 0.00 | 0.00 | 71 | 1016.6 |
| 20260506110051 | 35 | 268 | 0.0 | 2.0 | 0.00 | 0.00 | 0.00 | 71 | 1016.4 |
| 20260506104533 | 35 | 269 | 0.0 | 5.0 | 0.00 | 0.00 | 0.00 | 71 | 1016.4 |
| 20260506103013 | 35 | 270 | 0.0 | 2.0 | 0.00 | 0.00 | 0.00 | 71 | 1016.4 |
| 20260506101544 | 35 | 264 | 0.0 | 2.0 | 0.00 | 0.00 | 0.00 | 71 | 1016.5 |
| 20260506100020 | 35 | 264 | 0.0 | 1.0 | 0.00 | 0.00 | 0.00 | 71 | 1016.4 |
| 20260506094552 | 35 | 266 | 0.0 | 3.0 | 0.00 | 0.00 | 0.00 | 71 | 1016.2 |
| 20260506093026 | 35 | 261 | 0.0 | 4.0 | 0.00 | 0.00 | 0.00 | 71 | 1016.2 |
| 20260506091602 | 35 | 259 | 0.0 | 4.0 | 0.00 | 0.00 | 0.00 | 70 | 1016.0 |
| 20260506090033 | 35 | 258 | 0.0 | 2.0 | 0.00 | 0.00 | 0.00 | 70 | 1016.0 |
| 20260506084515 | 34 | 257 | 0.0 | 2.0 | 0.00 | 0.00 | 0.00 | 69 | 1015.9 |
| 20260506083049 | 34 | 240 | 0.0 | 3.0 | 0.00 | 0.00 | 0.00 | 69 | 1015.8 |
| 20260506081520 | 34 | 268 | 1.0 | 3.0 | 0.00 | 0.00 | 0.00 | 68 | 1015.8 |
| 20260506080103 | 34 | 269 | 1.0 | 5.0 | 0.00 | 0.00 | 0.00 | 68 | 1015.6 |
| 20260506073100 | 34 | 270 | 0.0 | 2.0 | 0.00 | 0.00 | 0.00 | 67 | 1015.7 |
| 20260506071542 | 34 | 261 | 0.0 | 3.0 | 0.00 | 0.00 | 0.00 | 67 | 1015.9 |
| 20260506061509 | 35 | 267 | 1.0 | 4.0 | 0.00 | 0.00 | 0.00 | 64 | 1015.7 |
| 20260506044523 | 35 | 260 | 1.0 | 5.0 | 0.00 | 0.00 | 0.00 | 62 | 1015.4 |
| 20260506043101 | 35 | 289 | 1.0 | 4.0 | 0.00 | 0.00 | 0.00 | 63 | 1015.4 |
| 20260506041532 | 35 | 288 | 0.0 | 2.0 | 0.00 | 0.00 | 0.00 | 63 | 1015.2 |
| 20260506040023 | 35 | 282 | 0.0 | 3.0 | 0.00 | 0.00 | 0.00 | 61 | 1015.1 |
| 20260506034610 | 36 | 276 | 0.0 | 5.0 | 0.00 | 0.00 | 0.00 | 60 | 1015.1 |
| 20260506033036 | 36 | 286 | 1.0 | 3.0 | 0.00 | 0.00 | 0.00 | 59 | 1015.0 |
| 20260506031507 | 36 | 282 | 0.0 | 2.0 | 0.00 | 0.00 | 0.00 | 59 | 1014.8 |
| 20260506030044 | 37 | 288 | 0.0 | 4.0 | 0.00 | 0.00 | 0.00 | 58 | 1014.8 |
| 20260506024546 | 37 | 283 | 0.0 | 3.0 | 0.00 | 0.00 | 0.00 | 57 | 1014.6 |
| 20260506023052 | 38 | 268 | 0.0 | 4.0 | 0.00 | 0.00 | 0.00 | 56 | 1014.4 |